{"data":{"norad_id":68602,"epoch":"2026-05-25T04:00:03.998880Z","epoch_age_seconds":71199,"freshness":"FRESH","line1":"1 68602U 26073A   26145.16671295 -.01945289  00000+0 -22727-1 0  9995","line2":"2 68602  97.2850 344.6356 0001889  97.4431 155.3949 15.64724368  5984","mean_motion":15.64724368,"eccentricity":0.0001889,"inclination_deg":97.285,"raan_deg":344.6356,"arg_perigee_deg":97.4431,"mean_anomaly_deg":155.3949,"bstar":-0.022727,"rev_number":598,"period_min":92.028987945051,"perigee_km":372.75610476048,"apogee_km":375.30707405356,"semimajor_km":6752.168589407,"source":"CELESTRAK","updated_at":"2026-05-25T13:38:21.965933Z"}}